Tracking 30701 objects as of 15-Jun-2025
HD Live streaming from Space Station
objects crossing your sky now

STARLINK-31842

Track STARLINK-31842 now!
10-day predictions
STARLINK-31842 is classified as:


NORAD ID: 59672
Int'l Code: 2024-084U
Perigee: 490.0 km
Apogee: 490.3 km
Inclination: 43.0 °
Period: 94.3 minutes
Semi major axis: 6861 km
RCS: Unknown
Launch date: May 6, 2024
Source: United States (US)
Launch site: AIR FORCE EASTERN TEST RANGE (AFETR)
Your satellite tracking list
Your tracking list is empty




NASA's NSSDC Master Catalog

Two Line Element Set (TLE):
1 59672U 24084U   25165.54999555  .00002553  00000-0  10225-3 0  9995
2 59672  43.0016 112.7315 0000225 140.9341 219.1527 15.27580604 63404
Source of the keplerian elements: AFSPC